Rolla, ND

8:54 PM CDT on May 27, 2017 (GMT -0500)
Rolla

Weather History for K06D - October, 2013

Change the Weather History Date:

Monday, October 7, 2013

  Actual Average (KRUG) Record (KRUG)
Temperature  
Mean Temperature 47 °F -  
Max Temperature 62 °F 59 °F 79 °F (1960)
Min Temperature 32 °F 34 °F 12 °F (1976)
Degree Days  
Heating Degree Days 18    
Moisture  
Dew Point 36 °F    
Average Humidity 64    
Maximum Humidity 100    
Minimum Humidity 32    
Precipitation  
Precipitation 0.00 in - - ()
Sea Level Pressure  
Sea Level Pressure 29.84 in    
Wind  
Wind Speed 10 mph (SSW)    
Max Wind Speed 16 mph    
Max Gust Speed 23 mph    
Visibility 10 miles    
Events      
Averages and records for this station are not official NWS values.
T = Trace of Precipitation, MM = Missing Value Source: NWS Daily Summary

Daily Weather History Graph

Daily Weather History Graph

Search for Another Location

Airport or City:

Trip Planner

Search our weather history database for the weather conditions in past years. The results will help you decide how hot, cold, wet, or windy it might be!

Date:

Astronomy

Oct. 07, 2013 Rise Set
Actual Time 7:47 AM CDT 7:04 PM CDT
Civil Twilight 7:15 AM CDT 7:35 PM CDT
Nautical Twilight 6:39 AM CDT 8:12 PM CDT
Astronomical Twilight 6:02 AM CDT 8:49 PM CDT
Moon 10:55 AM CDT (10/7) 8:33 PM CDT (10/7)
Length of Visible Light 12h 20m
Length of Day
11h 16m
Waxing Crescent, 9% of the Moon is Illuminated
Oct 7
Waxing Crescent
Oct 11
First Quarter
Oct 18
Full
Oct 26
Last Quarter
Nov 3
New

Hourly Weather History & Observations

Time (CDT) Temp. Windchill Dew Point Humidity Pressure Visibility Wind Dir Wind Speed Gust Speed Precip Events Conditions
12:15 AM 44.6 °F 39.2 °F 32.0 °F 61% 29.90 in 10.0 mi NW 10.4 mph - N/A   Clear
12:35 AM 44.6 °F 39.2 °F 32.0 °F 61% 29.90 in 10.0 mi NNW 10.4 mph - N/A   Clear
12:55 AM 44.6 °F 38.8 °F 32.0 °F 61% 29.91 in 10.0 mi NW 11.5 mph - N/A   Clear
1:15 AM 44.6 °F 39.2 °F 32.0 °F 61% 29.91 in 10.0 mi NNW 10.4 mph - N/A   Clear
1:35 AM 44.6 °F 39.2 °F 32.0 °F 61% 29.91 in 10.0 mi NW 10.4 mph - N/A   Clear
1:55 AM 44.6 °F 38.4 °F 32.0 °F 61% 29.91 in 10.0 mi NNW 12.7 mph - N/A   Clear
2:15 AM 44.6 °F 39.2 °F 32.0 °F 61% 29.91 in 10.0 mi NNW 10.4 mph - N/A   Scattered Clouds
2:35 AM 42.8 °F 37.0 °F 32.0 °F 66% 29.92 in 10.0 mi NNW 10.4 mph - N/A   Scattered Clouds
3:15 AM 39.2 °F 33.6 °F 32.0 °F 75% 29.92 in 10.0 mi NNW 8.1 mph - N/A   Partly Cloudy
3:35 AM 37.4 °F 31.4 °F 32.0 °F 81% 29.92 in 10.0 mi NNW 8.1 mph - N/A   Clear
3:55 AM 39.2 °F 34.2 °F 32.0 °F 75% 29.92 in 10.0 mi NW 6.9 mph - N/A   Mostly Cloudy
4:15 AM 39.2 °F 33.6 °F 33.8 °F 81% 29.92 in 10.0 mi NNW 8.1 mph - N/A   Overcast
4:35 AM 39.2 °F 33.0 °F 33.8 °F 81% 29.92 in 10.0 mi NW 9.2 mph - N/A   Scattered Clouds
4:55 AM 37.4 °F 32.1 °F 33.8 °F 87% 29.92 in 10.0 mi NNW 6.9 mph - N/A   Clear
5:15 AM 37.4 °F 33.8 °F 32.0 °F 81% 29.92 in 10.0 mi NW 4.6 mph - N/A   Clear
5:35 AM 35.6 °F 29.9 °F 32.0 °F 87% 29.92 in 10.0 mi NNW 6.9 mph - N/A   Scattered Clouds
5:55 AM 35.6 °F 32.8 °F 32.0 °F 87% 29.92 in 10.0 mi NW 3.5 mph - N/A   Scattered Clouds
6:15 AM 35.6 °F 32.8 °F 32.0 °F 87% 29.92 in 10.0 mi West 3.5 mph - N/A   Clear
6:35 AM 33.8 °F 30.8 °F 32.0 °F 93% 29.93 in 10.0 mi WNW 3.5 mph - N/A   Clear
6:55 AM 32.0 °F 28.7 °F 32.0 °F 100% 29.93 in 10.0 mi West 3.5 mph - N/A   Clear
7:15 AM 33.8 °F - 32.0 °F 93% 29.93 in 10.0 mi Calm Calm - N/A   Clear
7:35 AM 33.8 °F 29.6 °F 32.0 °F 93% 29.93 in 10.0 mi WSW 4.6 mph - N/A   Clear
7:55 AM 32.0 °F 27.5 °F 32.0 °F 100% 29.94 in 10.0 mi WSW 4.6 mph - N/A   Clear
8:15 AM 33.8 °F 30.8 °F 32.0 °F 93% 29.94 in 10.0 mi WSW 3.5 mph - N/A   Clear
8:35 AM 35.6 °F 32.8 °F 33.8 °F 93% 29.94 in 10.0 mi SW 3.5 mph - N/A   Partly Cloudy
8:55 AM 39.2 °F 37.0 °F 35.6 °F 87% 29.94 in 10.0 mi SSW 3.5 mph - N/A   Mostly Cloudy
9:15 AM 44.6 °F 43.1 °F 37.4 °F 76% 29.94 in 10.0 mi South 3.5 mph - N/A   Overcast
9:35 AM 48.2 °F - 39.2 °F 71% 29.94 in 10.0 mi South 6.9 mph - N/A   Overcast
9:55 AM 48.2 °F - 39.2 °F 71% 29.93 in 10.0 mi South 6.9 mph - N/A   Overcast
10:15 AM 48.2 °F - 39.2 °F 71% 29.93 in 10.0 mi South 10.4 mph - N/A   Partly Cloudy
10:35 AM 50.0 °F - 39.2 °F 66% 29.93 in 10.0 mi South 9.2 mph - N/A   Clear
10:55 AM 51.8 °F - 39.2 °F 62% 29.93 in 10.0 mi South 12.7 mph - N/A   Clear
11:15 AM 53.6 °F - 37.4 °F 54% 29.92 in 10.0 mi South 12.7 mph - N/A   Clear
11:35 AM 53.6 °F - 37.4 °F 54% 29.92 in 10.0 mi South 10.4 mph - N/A   Clear
11:55 AM 53.6 °F - 37.4 °F 54% 29.92 in 10.0 mi South 13.8 mph - N/A   Clear
12:15 PM 55.4 °F - 37.4 °F 51% 29.91 in 10.0 mi SSW 11.5 mph 17.3 mph N/A   Clear
12:35 PM 55.4 °F - 37.4 °F 51% 29.90 in 10.0 mi South 12.7 mph - N/A   Clear
12:55 PM 57.2 °F - 35.6 °F 44% 29.89 in 10.0 mi South 11.5 mph - N/A   Clear
1:15 PM 57.2 °F - 37.4 °F 48% 29.88 in 10.0 mi South 11.5 mph 16.1 mph N/A   Clear
1:35 PM 59.0 °F - 33.8 °F 39% 29.87 in 10.0 mi South 10.4 mph - N/A   Clear
1:55 PM 59.0 °F - 33.8 °F 39% 29.86 in 10.0 mi SSW 11.5 mph 17.3 mph N/A   Clear
2:15 PM 59.0 °F - 33.8 °F 39% 29.85 in 10.0 mi SSW 12.7 mph 19.6 mph N/A   Clear
2:35 PM 60.8 °F - 32.0 °F 34% 29.84 in 10.0 mi South 11.5 mph 18.4 mph N/A   Clear
2:55 PM 62.6 °F - 32.0 °F 32% 29.83 in 10.0 mi South 13.8 mph - N/A   Clear
3:15 PM 62.6 °F - 32.0 °F 32% 29.83 in 10.0 mi South 11.5 mph 19.6 mph N/A   Clear
3:35 PM 62.6 °F - 33.8 °F 34% 29.82 in 10.0 mi South 13.8 mph 21.9 mph N/A   Clear
3:55 PM 62.6 °F - 35.6 °F 37% 29.81 in 10.0 mi South 16.1 mph 20.7 mph N/A   Clear
4:15 PM 62.6 °F - 35.6 °F 37% 29.80 in 10.0 mi SSE 13.8 mph - N/A   Clear
4:35 PM 62.6 °F - 35.6 °F 37% 29.79 in 10.0 mi SSE 16.1 mph 21.9 mph N/A   Clear
4:55 PM 62.6 °F - 35.6 °F 37% 29.79 in 10.0 mi South 15.0 mph 21.9 mph N/A   Clear
5:15 PM 62.6 °F - 35.6 °F 37% 29.77 in 10.0 mi SSE 16.1 mph 23.0 mph N/A   Clear
5:35 PM 62.6 °F - 37.4 °F 39% 29.76 in 10.0 mi SSE 13.8 mph 21.9 mph N/A   Clear
5:55 PM 60.8 °F - 37.4 °F 42% 29.75 in 10.0 mi SSE 15.0 mph - N/A   Clear
6:15 PM 59.0 °F - 37.4 °F 45% 29.75 in 10.0 mi SSE 15.0 mph - N/A   Clear
6:35 PM 57.2 °F - 39.2 °F 51% 29.74 in 10.0 mi SSE 12.7 mph 19.6 mph N/A   Clear
6:55 PM 57.2 °F - 39.2 °F 51% 29.74 in 10.0 mi SSE 10.4 mph - N/A   Clear
7:15 PM 55.4 °F - 39.2 °F 54% 29.74 in 10.0 mi SSE 10.4 mph - N/A   Clear
7:35 PM 53.6 °F - 39.2 °F 58% 29.73 in 10.0 mi SSE 10.4 mph - N/A   Clear
7:55 PM 51.8 °F - 39.2 °F 62% 29.72 in 10.0 mi SSE 11.5 mph - N/A   Clear
8:15 PM 53.6 °F - 39.2 °F 58% 29.71 in 10.0 mi SSE 12.7 mph - N/A   Clear
8:35 PM 53.6 °F - 41.0 °F 62% 29.70 in 10.0 mi SSE 13.8 mph 18.4 mph N/A   Clear
8:55 PM 53.6 °F - 41.0 °F 62% 29.70 in 10.0 mi South 11.5 mph - N/A   Clear
9:15 PM 51.8 °F - 41.0 °F 67% 29.69 in 10.0 mi South 10.4 mph - N/A   Clear
9:35 PM 53.6 °F - 41.0 °F 62% 29.68 in 10.0 mi South 12.7 mph - N/A   Clear
9:55 PM 51.8 °F - 41.0 °F 67% 29.68 in 10.0 mi South 11.5 mph - N/A   Clear
10:15 PM 50.0 °F - 42.8 °F 76% 29.67 in 10.0 mi South 11.5 mph 17.3 mph N/A   Clear
10:35 PM 50.0 °F - 42.8 °F 76% 29.67 in 10.0 mi South 10.4 mph - N/A   Clear
10:55 PM 50.0 °F - 42.8 °F 76% 29.67 in 10.0 mi SSW 8.1 mph - N/A   Clear
11:15 PM 46.4 °F 42.4 °F 41.0 °F 81% 29.67 in 10.0 mi SSW 8.1 mph - N/A   Clear
11:35 PM 46.4 °F 43.5 °F 42.8 °F 87% 29.67 in 10.0 mi South 5.8 mph - N/A   Clear
11:55 PM 46.4 °F 43.5 °F 42.8 °F 87% 29.66 in 10.0 mi South 5.8 mph - N/A   Clear